"2005/01/01", 70, 97, 32
"2005/01/02", 60, 85, 33
"2005/01/03", 66, 88, 52
"2005/01/04", 60, 80, 33
"2005/01/05", 46, 63, 32
"2005/01/06", 72, 92, 55
"2005/01/07", 71, 92, 45
"2005/01/08", 46, 79, 26
"2005/01/09", 52, 75, 31
"2005/01/10", 53, 74, 29
"2005/01/11", 57, 87, 30
"2005/01/12", 58, 89, 23
"2005/01/13", 38, 63, 26
"2005/01/14", 64, 84, 36
"2005/01/15", 89, 97, 70
"2005/01/16", 86, 97, 61
"2005/01/17", 59, 84, 38
"2005/01/18", 54, 76, 38
"2005/01/19", 80, 94, 67
"2005/01/20", 62, 95, 26
"2005/01/21", 50, 68, 31
"2005/01/22", 42, 71, 27
"2005/01/23", 62, 79, 47
"2005/01/24", 75, 90, 53
"2005/01/25", 63, 90, 29
"2005/01/26", 83, 93, 58
"2005/01/27", 62, 88, 45
"2005/01/28", 73, 87, 59
"2005/01/29", 78, 92, 60
"2005/01/30", 47, 92, 25
"2005/01/31", 44, 66, 32
"2005/02/01", 51, 79, 20
"2005/02/02", 43, 69, 27
"2005/02/03", 44, 67, 26
"2005/02/04", 39, 58, 25
"2005/02/05", 45, 78, 22
"2005/02/06", 46, 71, 29
"2005/02/07", 60, 81, 31
"2005/02/08", 90, 94, 79
"2005/02/09", 81, 95, 59
"2005/02/10", 72, 94, 42
"2005/02/11", 39, 66, 22
"2005/02/12", 44, 68, 22
"2005/02/13", 68, 81, 46
"2005/02/14", 53, 88, 22
"2005/02/15", 61, 81, 33
"2005/02/16", 84, 92, 64
"2005/02/17", 77, 91, 56
"2005/02/18", 61, 72, 46
"2005/02/19", 87, 95, 61
"2005/02/20", 80, 95, 64
"2005/02/21", 70, 89, 37
"2005/02/22", 52, 88, 21
"2005/02/23", 52, 85, 19
"2005/02/24", 68, 91, 34
"2005/02/25", 85, 93, 74
"2005/02/26", 54, 93, 25
"2005/02/27", 48, 73, 25
"2005/02/28", 66, 82, 39
"2005/03/01", 48, 75, 29
"2005/03/02", 53, 82, 28
"2005/03/03", 70, 85, 46
"2005/03/04", 89, 94, 77
"2005/03/05", 81, 92, 61
"2005/03/06", 70, 88, 55
"2005/03/07", 72, 93, 39
"2005/03/08", 67, 94, 28
"2005/03/09", 74, 93, 61
"2005/03/10", 69, 78, 58
"2005/03/11", 91, 96, 77
"2005/03/12", 77, 97, 44
"2005/03/13", 34, 63, 15
"2005/03/14", 43, 70, 15
"2005/03/15", 62, 79, 28
"2005/03/16", 63, 80, 35
"2005/03/17", 84, 95, 76
"2005/03/18", 51, 91, 18
"2005/03/19", 40, 74, 19
"2005/03/20", 61, 81, 41
"2005/03/21", 51, 78, 17
"2005/03/22", 73, 91, 54
"2005/03/23", 91, 96, 82
"2005/03/24", 80, 93, 61
"2005/03/25", 46, 89, 20
"2005/03/26", 48, 77, 27
"2005/03/27", 55, 81, 28
"2005/03/28", 91, 96, 73
"2005/03/29", 80, 96, 44
"2005/03/30", 42, 72, 22
"2005/03/31", 55, 81, 26
"2005/04/01", 51, 90, 16
"2005/04/02", 64, 76, 52
"2005/04/03", 75, 92, 41
"2005/04/04", 74, 89, 56
"2005/04/05", 68, 91, 39
"2005/04/06", 59, 93, 26
"2005/04/07", 63, 81, 41
"2005/04/08", 64, 87, 14
"2005/04/09", 58, 83, 34
"2005/04/10", 73, 84, 50
"2005/04/11", 84, 92, 66
"2005/04/12", 83, 92, 68
"2005/04/13", 90, 94, 83
"2005/04/14", 72, 96, 35
"2005/04/15", 68, 90, 30
"2005/04/16", 69, 90, 56
"2005/04/17", 61, 89, 25
"2005/04/18", 53, 74, 34
"2005/04/19", 74, 87, 61
"2005/04/20", 87, 93, 79
"2005/04/21", 84, 96, 61
"2005/04/22", 63, 90, 22
"2005/04/23", 42, 67, 18
"2005/04/24", 64, 77, 50
"2005/04/25", 75, 89, 58
"2005/04/26", 86, 94, 74
"2005/04/27", 73, 96, 39
"2005/04/28", 67, 88, 45
"2005/04/29", 66, 82, 43
"2005/04/30", 46, 66, 26
"2005/05/01", 74, 92, 54
"2005/05/02", 78, 96, 54
"2005/05/03", 51, 76, 18
"2005/05/04", 63, 85, 39
"2005/05/05", 70, 90, 51
"2005/05/06", 78, 92, 64
"2005/05/07", 90, 95, 78
"2005/05/08", 79, 95, 66
"2005/05/09", 86, 95, 69
"2005/05/10", 51, 82, 20
"2005/05/11", 65, 75, 55
"2005/05/12", 81, 88, 71
"2005/05/13", 78, 91, 71
"2005/05/14", 74, 87, 60
"2005/05/15", 76, 90, 41
"2005/05/16", 56, 82, 32
"2005/05/17", 78, 95, 66
"2005/05/18", 78, 96, 57
"2005/05/19", 74, 83, 61
"2005/05/20", 53, 78, 37
"2005/05/21", 66, 92, 34
"2005/05/22", 74, 88, 53
"2005/05/23", 78, 93, 58
"2005/05/24", 81, 94, 56
"2005/05/25", 76, 92, 51
"2005/05/26", 77, 95, 45
"2005/05/27", 80, 95, 59
"2005/05/28", 77, 90, 58
"2005/05/29", 89, 96, 78
"2005/05/30", 91, 94, 86
"2005/05/31", 80, 93, 62
"2005/06/01", 77, 95, 54
"2005/06/02", 82, 95, 60
"2005/06/03", 89, 95, 78
"2005/06/04", 88, 95, 75
"2005/06/05", 81, 96, 61
"2005/06/06", 77, 91, 56
"2005/06/07", 83, 90, 70
"2005/06/08", 78, 92, 58
"2005/06/09", 81, 91, 62
"2005/06/10", 92, 96, 83
"2005/06/11", 84, 96, 68
"2005/06/12", 83, 95, 63
"2005/06/13", 85, 94, 75
"2005/06/14", 87, 95, 78
"2005/06/15", 93, 95, 89
"2005/06/16", 88, 94, 80
"2005/06/17", 85, 94, 72
"2005/06/18", 92, 97, 84
"2005/06/19", 87, 97, 67
"2005/06/20", 84, 93, 61
"2005/06/21", 78, 92, 53
"2005/06/22", 90, 96, 76
"2005/06/23", 88, 95, 76
"2005/06/24", 82, 95, 59
"2005/06/25", 78, 95, 52
"2005/06/26", 80, 94, 62
"2005/06/27", 80, 94, 60
"2005/06/28", 80, 94, 70
"2005/06/29", 88, 96, 74
"2005/06/30", 91, 96, 78
"2005/07/01", 93, 97, 82
"2005/07/02", 88, 95, 75
"2005/07/03", 88, 95, 80
"2005/07/04", 95, 97, 90
"2005/07/05", 90, 97, 80
"2005/07/06", 91, 96, 80
"2005/07/07", 84, 96, 65
"2005/07/08", 84, 95, 74
"2005/07/09", 90, 96, 83
"2005/07/10", 83, 96, 70
"2005/07/11", 85, 94, 70
"2005/07/12", 92, 96, 85
"2005/07/13", 83, 90, 72
"2005/07/14", 94, 96, 87
"2005/07/15", 90, 97, 69
"2005/07/16", 91, 97, 76
"2005/07/17", 87, 96, 69
"2005/07/18", 84, 96, 58
"2005/07/19", 78, 95, 52
"2005/07/20", 70, 87, 51
"2005/07/21", 77, 92, 57
"2005/07/22", 89, 95, 83
"2005/07/23", 83, 90, 72
"2005/07/24", 87, 94, 74
"2005/07/25", 92, 96, 81
"2005/07/26", 92, 96, 82
"2005/07/27", 69, 93, 43
"2005/07/28", 71, 92, 50
"2005/07/29", 86, 95, 70
"2005/07/30", 88, 96, 76
"2005/07/31", 84, 95, 63
"2005/08/01", 87, 95, 67
"2005/08/02", 88, 96, 70
"2005/08/03", 82, 95, 60
"2005/08/04", 85, 95, 65
"2005/08/05", 78, 96, 54
"2005/08/06", 75, 90, 58
"2005/08/07", 76, 90, 56
"2005/08/08", 83, 95, 60
"2005/08/09", 85, 92, 73
"2005/08/10", 89, 95, 75
"2005/08/11", 84, 93, 71
"2005/08/12", 88, 96, 73
"2005/08/13", 89, 94, 77
"2005/08/14", 82, 94, 64
"2005/08/15", 84, 95, 62
"2005/08/16", 85, 95, 75
"2005/08/17", 82, 93, 71
"2005/08/18", 88, 95, 76
"2005/08/19", 76, 93, 56
"2005/08/20", 76, 94, 53
"2005/08/21", 77, 89, 59
"2005/08/22", 81, 91, 66
"2005/08/23", 85, 93, 70
"2005/08/24", 85, 92, 71
"2005/08/25", 91, 95, 87
"2005/08/26", 81, 96, 66
"2005/08/27", 81, 90, 73
"2005/08/28", 77, 84, 72
"2005/08/29", 73, 91, 54
"2005/08/30", 76, 94, 47
"2005/08/31", 77, 95, 59
"2005/09/01", 76, 92, 61
"2005/09/02", 79, 94, 54
"2005/09/03", 79, 93, 44
"2005/09/04", 91, 95, 84
"2005/09/05", 90, 96, 82
"2005/09/06", 93, 96, 91
"2005/09/07", 85, 96, 68
"2005/09/08", 75, 90, 53
"2005/09/09", 79, 89, 73
"2005/09/10", 85, 94, 73
"2005/09/11", 88, 95, 66
"2005/09/12", 82, 96, 60
"2005/09/13", 85, 96, 63
"2005/09/14", 79, 94, 62
"2005/09/15", 78, 90, 68
"2005/09/16", 69, 83, 57
"2005/09/17", 77, 89, 61
"2005/09/18", 83, 95, 63
"2005/09/19", 83, 96, 64
"2005/09/20", 84, 95, 67
"2005/09/21", 77, 86, 65
"2005/09/22", 80, 89, 71
"2005/09/23", 83, 92, 71
"2005/09/24", 92, 94, 86
"2005/09/25", 80, 91, 64
"2005/09/26", 72, 78, 68
"2005/09/27", 74, 81, 65
"2005/09/28", 71, 80, 54
"2005/09/29", 75, 86, 60
"2005/09/30", 74, 86, 56
"2005/10/01", 72, 95, 44
"2005/10/02", 77, 92, 54
"2005/10/03", 73, 92, 58
"2005/10/04", 90, 95, 69
"2005/10/05", 91, 95, 81
"2005/10/06", 88, 94, 80
"2005/10/07", 88, 94, 67
"2005/10/08", 90, 96, 78
"2005/10/09", 88, 94, 77
"2005/10/10", 91, 96, 83
"2005/10/11", 83, 90, 73
"2005/10/12", 76, 85, 60
"2005/10/13", 77, 89, 65
"2005/10/14", 83, 95, 67
"2005/10/15", 94, 96, 85
"2005/10/16", 88, 97, 78
"2005/10/17", 90, 96, 78
"2005/10/18", 89, 96, 81
"2005/10/19", 78, 91, 69
"2005/10/20", 72, 87, 53
"2005/10/21", 82, 88, 72
"2005/10/22", 91, 96, 83
"2005/10/23", 66, 93, 34
"2005/10/24", 80, 90, 61
"2005/10/25", 71, 93, 43
"2005/10/26", 77, 92, 63
"2005/10/27", 87, 92, 77
"2005/10/28", 87, 96, 64
"2005/10/29", 91, 96, 81
"2005/10/30", 74, 94, 61
"2005/10/31", 71, 82, 59
"2005/11/01", 65, 86, 43
"2005/11/02", 78, 93, 46
"2005/11/03", 79, 94, 50
"2005/11/04", 80, 95, 52
"2005/11/05", 79, 96, 46
"2005/11/06", 85, 96, 74
"2005/11/07", 74, 96, 32
"2005/11/08", 52, 82, 27
"2005/11/09", 52, 82, 29
"2005/11/10", 70, 89, 53
"2005/11/11", 86, 95, 68
"2005/11/12", 70, 92, 43
"2005/11/13", 64, 89, 39
"2005/11/14", 84, 94, 71
"2005/11/15", 67, 81, 55
"2005/11/16", 63, 87, 45
"2005/11/17", 58, 83, 39
"2005/11/18", 60, 79, 36
"2005/11/19", 57, 94, 33
"2005/11/20", 60, 89, 38
"2005/11/21", 62, 78, 43
"2005/11/22", 73, 93, 41
"2005/11/23", 77, 91, 68
"2005/11/24", 80, 95, 40
"2005/11/25", 74, 85, 60
"2005/11/26", 82, 95, 47
"2005/11/27", 77, 95, 51
"2005/11/28", 78, 93, 52
"2005/11/29", 68, 95, 30
"2005/11/30", 49, 84, 28
"2005/12/01", 54, 82, 32
"2005/12/02", 68, 88, 50
"2005/12/03", 51, 68, 34
"2005/12/04", 75, 98, 43
"2005/12/05", 66, 97, 29
"2005/12/06", 75, 86, 67
"2005/12/07", 64, 79, 41
"2005/12/08", 74, 92, 58
"2005/12/09", 66, 96, 31
"2005/12/10", 56, 89, 27
"2005/12/11", 53, 79, 38
"2005/12/12", 61, 84, 45
"2005/12/13", 50, 76, 24
"2005/12/14", 53, 84, 23
"2005/12/15", 61, 85, 30
"2005/12/16", 57, 89, 26
"2005/12/17", 53, 88, 24
"2005/12/18", 38, 74, 17
"2005/12/19", 44, 70, 27
"2005/12/20", 55, 85, 34
"2005/12/21", 69, 92, 40
"2005/12/22", 55, 93, 20
"2005/12/23", 44, 82, 21
"2005/12/24", 55, 84, 25
"2005/12/25", 61, 83, 24
"2005/12/26", 44, 76, 22
"2005/12/27", 39, 57, 24
"2005/12/28", 46, 72, 26
"2005/12/29", 54, 75, 34
"2005/12/30", 60, 85, 39
"2005/12/31", 43, 59, 28
